Flag for Germany Weather past 2 weeks in Hürth, North Rhine-Westphalia, Germany

Now
52 °F

Cool.


Feels Like: 49 °F
Forecast: 47 / 53 °F
Wind: 9 mph from South

Location: Noervenich

Current Time: Mar 28, 2015 at 7:30:18 PM

Latest Report: Mar 28, 2015 at 6:20 PM


Visibility: N/A

Pressure: 29.89 "Hg

Humidity: 77%

Dew point: 45 °F

Location of HürthLocation

Historic Weather in Hürth — Graph

°F

Hürth temperature yesterday

Maximum temperature yesterday: 48 °F (at 12:20 PM)
Minimum temperature yesterday: 39 °F (at 5:20 AM)
Average temperature yesterday: 44 °F

Past Weeks' High & Low Weather Summary

 TemperatureHumidityPressure
High63 °F (Mar 17, 4:20 PM)100% (Mar 14, 7:20 PM)30.36 "Hg (Mar 14, 7:20 PM)
Low30 °F (Mar 16, 5:20 AM)40% (Mar 26, 1:20 PM)29.65 "Hg (Mar 25, 12:20 AM)
Average43 °F80%30.10 "Hg
* Reported Mar 13 6:20 PM — Mar 28 6:20 PM, Hürth, Weather by CustomWeather, © 2015

Note: Actual official high and low records may vary slightly from our data, if they occured in-between our weather recording intervals... More about our weather records

Advertising

Hürth weather history for previous 24 hours

 ConditionsComfort  
Time TempWeatherWind HumidityBarometerVisibility
6:20 PM
Sat, Mar 28
52 °FCool.9 mph77%29.89 "HgN/A
5:20 PM50 °FCool.8 mph82%29.92 "HgN/A
4:20 PM48 °FCool.5 mph87%29.95 "HgN/A
3:20 PM48 °FCool.5 mph87%29.98 "Hg2 mi
2:20 PM48 °FCool.5 mph87%30.01 "Hg4 mi
1:20 PM50 °FCool.6 mph76%30.01 "HgN/A
12:20 PM54 °FCool.8 mph58%30.04 "HgN/A
11:20 AM54 °FPartly sunny.7 mph51%30.07 "HgN/A
10:20 AM52 °FBroken clouds.7 mph50%30.09 "HgN/A
9:20 AM48 °FScattered clouds.5 mph62%30.12 "HgN/A
8:20 AM45 °FScattered clouds.5 mph66%30.12 "HgN/A
7:20 AM41 °FPartly sunny.2 mph76%30.15 "HgN/A
6:20 AM37 °FPartly sunny.2 mph81%30.15 "HgN/A
5:20 AM32 °FPassing clouds.1 mph93%30.18 "HgN/A
4:20 AM34 °FPassing clouds.No wind87%30.18 "HgN/A
3:20 AM39 °FPassing clouds.2 mph81%30.18 "HgN/A
2:20 AM39 °FPassing clouds.1 mph81%30.21 "HgN/A
1:20 AM41 °FPassing clouds.2 mph76%30.21 "HgN/A
12:20 AM39 °FPassing clouds.1 mph81%30.21 "HgN/A
11:20 PM
Fri, Mar 27
39 °FPassing clouds.2 mph81%30.21 "HgN/A
10:20 PM43 °FPassing clouds.2 mph71%30.21 "HgN/A
9:20 PM43 °FPassing clouds.2 mph71%30.21 "HgN/A
8:20 PM45 °FPassing clouds.2 mph66%30.18 "HgN/A
7:20 PM46 °FPassing clouds.5 mph62%30.18 "HgN/A
Weather by CustomWeather, © 2015

See weather overviewHow to use our weather pages